Showing default

TIANHUI 5C, 60211

Orbit data source: Space-Track

TIANHUI 5C, 60211 is a payload satellite owned by G. Cehui dili (CN) in SSO that was launched on Thu, 04 Jul 2024 UTC via a CHANG ZHENG 6A launch vehicle from the Taiyaun Space Center, China (TSC). Payload-class satellites include a variety of spacecraft equipped with specific instruments for various scientific and technological missions. These include communications satellites like Starlink; space stations such as the ISS; scientific satellites like the Hubble; Earth observation satellites from companies like Planet Labs, Umbra, and HawkEye 360; GPS; miniature CubeSats for education and research; and military/defense satellites.

Loading next visibility...
Identifier
60211, 2024-126A
Orbit
SSO
Last TLE update
9 hours ago
Origin
Manufacturer
DFH
Mission
Operational spacecraft
Bus & Motor
CAST-2000?, Unknown motor
Mass
~1,000 kg wet, ~1,000 kg dry
Launch date (UTC)
2024-07-04 (1 year ago)
Launch vehicle
CHANG ZHENG 6A
Launch site
Taiyaun Space Center, China (TSC)
Object type
Payload
Rocket body
Debris
Shape & HBR
Unknown
Radar Cross Section
Large (>1 m²)

Expand to show TLE details & history

TLE from 9 hours ago
0 TIANHUI 5C
1 60211U 24126A   25182.78559408  .00000341  00000-0  43445-4 0  9991
2 60211  97.8208 190.3720 0001560  91.3140 268.8255 14.87585283 53799
Epoch: 2025-07-01T18:51Z
TLE epoch observation values (Epoch: 2025-07-01T18:51:15.328Z)
Latitude
-0.00003°
Longitude
-12.51792°
Altitude
608.54 km
Speed
7.555 km/s
True Right ascension
12h 41m 29s
True Declination
0° 00' 00"
Sunlit
Object was in daylight at epoch
Visualization orbit readout
Latitude
-59.86602°
Longitude
1.48027°
Altitude
629.545 km
Speed
7.542 km/s
Apparent Right ascension
06h 58m 08s
Apparent Declination
-74° 14' 51"
Sunlit
Object is in full shadow
Visualization observer readout
Local Sidereal Time
15:57:27
Azimuth
197.374° SSW
Elevation
-49.85°
Doppler factor
1
Orbital elements
Apogee altitude
603.599 km
Perigee altitude
601.421 km
Semi-major axis
6,980.647 km
Eccentricity
0.00016
Inclination
97.8208°
RAAN
190.372°
Arg. of periapsis
91.314°
True anomaly
Unknown
Mean anomaly
268.8255°
Eccentric anomaly
Unknown
Mean motion
3.72134 °/min
Orbital period
96.74 mins
BSTAR
0.000043445
Loading maneuver chart data...
Loading SW <> Apogee altitude chart data...
Loading historical data...
Loading historical data...
Loading historical data...
Loading historical data...
Loading historical data...
Loading historical data...
Loading historical data...
Other satellites on launch #126 in the year 2024 (2024-07-04 UTC)

TIANHUI 5C Visibility forecast

Observer location: undefined°, undefined°

Span
Click to sort rows by Start time (UTC) header in descending order
Start Az.
Max El. time (UTC)
Max El. Az.
Max El.
End time (UTC)
End Az.
7 mins2025-07-02 13:11:05.025Z21.912° NNE2025-07-02 13:14:05.025Z76.366° E40.89°2025-07-02 13:18:05.025Z181.13° SSW
6 mins2025-07-03 00:03:05.025Z135.327° SSE2025-07-03 00:06:05.025Z68.022° E33.015°2025-07-03 00:09:05.025Z7.528° NNE
|